Content
SEND FEEDBACK

Daily
Averages
Monthly
Summary
United Kingdom

STORNOWAY, SCOTLAND


Home > Europe > United Kingdom > Scotland
Elevation: 43 feet     Latitude: 58 13N     Longitude: 006 19W

WEATHER
 
SELECT A DAY
Number of Records: 236,072;   Date Range: 7/1/96 - 7/9/14
 
SHARE

PRINT THIS DATA

[ ← Previous Day ]
WEATHER ALMANAC - JANUARY 19, 2013
[ Next Day → ]
[ °C ]   °F
Weather ElementAverageHighLow
Temperature37.8 °F41 °F (11:50 am)35.6 °F (8:20 pm)
Dewpoint29.4 °F32 °F (9:20 am)26.6 °F (7:50 pm)
Humidity70.1 %81 % (8:50 pm)56 % (2:50 pm)
Barometer29.71 in29.77 in (4:20 pm)29.62 in (12:50 am)
Wind Speed18 mph28.8 mph (2:50 am)
Wind Gust38 mph (1:20 am)
Weather ElementAverage
Visibility8.6 mi
Wind DirectionESE (108.5 °)

Weather ElementTotal
Precipitation---
Heating Degree Days26.7 (Base 65)
Averaged from 55 records on January 19, 2013
WEATHER CONDITIONS BREAKOUT
WIND DIRECTION BREAKOUT
WEATHER BY HOUR - JANUARY 19, 2013
[ °C ]   °F
Local TimeTemperatureDewpointHumidityBarometerVisibilityWind DirectionWind SpeedGust SpeedPrecipitationEventsConditions
12:50 AM37.4 °F30.2 °F75 %29.62 in6.2 miESE (110°)24.2 mphScattered Clouds
1:20 AM37.4 °F28.4 °F70 %29.62 in6.2 miESE (110°)26.5 mph38.0 mphScattered Clouds
1:50 AM37.4 °F28.4 °F70 %29.62 in6.2 miESE (110°)25.3 mph36.8 mphScattered Clouds
2:20 AM37.4 °F28.4 °F70 %29.65 in6.2 miESE (110°)24.2 mphScattered Clouds
2:50 AM37.0 °F27.0 °F57 %29.64 in25.0 miEast (100°)28.8 mphScattered Clouds
2:50 AM37.4 °F28.4 °F70 %29.65 in6.2 miESE (110°)25.3 mphScattered Clouds
3:20 AM37.4 °F28.4 °F70 %29.62 in6.2 miESE (110°)25.3 mphScattered Clouds
3:50 AM37.4 °F30.2 °F75 %29.65 in6.2 miESE (110°)20.7 mphPartly Cloudy
4:20 AM37.4 °F28.4 °F70 %29.65 in6.2 miESE (110°)19.6 mphPartly Cloudy
4:50 AM37.4 °F30.2 °F75 %29.65 in6.2 miEast (100°)18.4 mphScattered Clouds
5:20 AM37.4 °F28.4 °F70 %29.65 in6.2 miESE (110°)20.7 mph32.2 mphScattered Clouds
5:50 AM37.0 °F28.0 °F59 %29.65 in22.0 miEast (100°)27.6 mph
5:50 AM37.4 °F28.4 °F70 %29.65 in6.2 miESE (110°)20.7 mphPartly Cloudy
6:20 AM37.4 °F30.2 °F75 %29.65 in6.2 miEast (100°)18.4 mphPartly Cloudy
6:50 AM37.4 °F30.2 °F75 %29.68 in6.2 miEast (100°)17.3 mphScattered Clouds
7:20 AM37.4 °F30.2 °F75 %29.68 in6.2 miEast (100°)20.7 mphScattered Clouds
7:50 AM37.4 °F30.2 °F75 %29.68 in6.2 miEast (100°)16.1 mphScattered Clouds
8:20 AM37.4 °F30.2 °F75 %29.71 in6.2 miESE (110°)17.3 mphScattered Clouds
8:50 AM37.0 °F30.0 °F66 %29.71 in22.0 miEast (100°)21.9 mph
8:50 AM37.4 °F30.2 °F75 %29.71 in6.2 miESE (110°)16.1 mphScattered Clouds
9:20 AM39.2 °F32.0 °F75 %29.71 in6.2 miEast (100°)17.3 mphScattered Clouds
9:50 AM39.2 °F32.0 °F75 %29.71 in6.2 miESE (110°)19.6 mphScattered Clouds
10:20 AM39.2 °F32.0 °F75 %29.74 in6.2 miEast (90°)13.8 mphScattered Clouds
10:50 AM39.2 °F32.0 °F75 %29.74 in6.2 miEast (100°)20.7 mphScattered Clouds
11:20 AM39.2 °F30.2 °F70 %29.74 in6.2 miESE (110°)19.6 mphPartly Cloudy
11:50 AM40.0 °F30.0 °F58 %29.74 in12.0 miEast (100°)21.9 mph
11:50 AM41.0 °F30.2 °F65 %29.74 in6.2 miESE (110°)18.4 mphPartly Cloudy
12:20 PM39.2 °F32.0 °F75 %29.74 in6.2 miEast (100°)17.3 mphPartly Cloudy
12:50 PM39.2 °F32.0 °F75 %29.74 in6.2 miESE (110°)16.1 mphPartly Cloudy
1:20 PM39.2 °F32.0 °F75 %29.74 in6.2 miESE (110°)16.1 mphPartly Cloudy
1:50 PM39.2 °F30.2 °F70 %29.74 in6.2 miEast (100°)19.6 mphPartly Cloudy
2:20 PM39.2 °F30.2 °F70 %29.74 in6.2 miESE (110°)17.3 mphPartly Cloudy
2:50 PM40.0 °F30.0 °F56 %29.75 in19.0 miEast (100°)21.9 mphScattered Clouds
2:50 PM39.2 °F30.2 °F70 %29.74 in6.2 miESE (110°)13.8 mphPartly Cloudy
3:20 PM41.0 °F30.2 °F65 %29.74 in6.2 miESE (110°)18.4 mphScattered Clouds
3:50 PM39.2 °F30.2 °F70 %29.74 in6.2 miESE (110°)16.1 mphPartly Cloudy
4:20 PM39.2 °F30.2 °F70 %29.77 in6.2 miESE (120°)15.0 mphPartly Cloudy
4:50 PM39.2 °F28.4 °F65 %29.77 in6.2 miESE (110°)12.7 mphPartly Cloudy
5:20 PM37.4 °F30.2 °F75 %29.74 in6.2 miESE (110°)11.5 mphPartly Cloudy
5:50 PM37.0 °F28.0 °F61 %29.74 in28.0 miEast (100°)23.0 mph
5:50 PM37.4 °F28.4 °F70 %29.74 in6.2 miEast (100°)15.0 mph
6:20 PM37.4 °F28.4 °F70 %29.77 in6.2 miEast (100°)11.5 mph
6:50 PM37.4 °F28.4 °F70 %29.77 in6.2 miESE (110°)13.8 mph
7:20 PM37.4 °F28.4 °F70 %29.77 in6.2 miESE (120°)16.1 mph
7:50 PM37.4 °F26.6 °F65 %29.77 in6.2 miESE (120°)15.0 mph
8:20 PM35.6 °F28.4 °F75 %29.77 in6.2 miSE (130°)15.0 mph
8:50 PM36.0 °F29.0 °F66 %29.76 in25.0 miESE (110°)15.0 mph
8:50 PM35.6 °F30.2 °F81 %29.77 in6.2 miESE (120°)11.5 mph
9:20 PM37.4 °F28.4 °F70 %29.77 in6.2 miESE (110°)11.5 mph
9:50 PM37.4 °F28.4 °F70 %29.77 in6.2 miESE (120°)11.5 mphPartly Cloudy
10:20 PM37.4 °F26.6 °F65 %29.74 in6.2 miESE (110°)11.5 mphPartly Cloudy
10:50 PM35.6 °F26.6 °F70 %29.74 in6.2 miESE (120°)12.7 mphPartly Cloudy
11:20 PM35.6 °F28.4 °F75 %29.74 in6.2 miESE (120°)12.7 mph
11:50 PM36.0 °F27.0 °F59 %29.75 in28.0 miESE (110°)16.1 mph
11:50 PM35.6 °F26.6 °F70 %29.74 in6.2 miSE (130°)13.8 mph
Hourly data recorded from EGPO, located miles away from Stornoway, Scotland







STORIES FROM OUR PARTNERS